[[{"header":{"parameterUnit":"m.s-1","parameterCategory":2,"la1":30.2991,"la2":30.254,"lo1":-89.0895,"lo2":-89.0444,"dx":0.0017,"dy":0.0017,"nx":28,"ny":28,"refTime":"2022-11-21T15:00:00:Z","depth":"0","parameterNumber":2,"parameterNumberName":"U-component_of_CURRENTS"},"data":[0,0,0,0,0,0,0,0,0,0,0,0,0,0,0,0,0,0,0,0,0,0,0,0,0,0,0,0,0,0,0,0,0,0,0,0,0,0,0,0,0,0,0,0,0,0,0,0,0,0,0,0,0,0,0,0,0,0,-0.2337,-0.2337,0,-0.2391,-0.2391,-0.2391,-0.239,-0.239,-0.2389,-0.2389,-0.2343,-0.2342,-0.2341,0,0,0,0,0,0,0,0,0,0,0,0,0,-0.225,-0.2251,-0.2336,-0.2337,-0.2338,-0.2391,-0.2391,-0.2392,-0.239,-0.239,-0.2389,-0.2389,-0.2343,-0.2342,-0.2341,0,0,0,0,0,0,0,0,0,0,0,0,0,-0.2291,-0.2252,-0.2336,-0.2347,-0.2349,-0.2391,-0.2391,-0.2392,-0.239,-0.239,-0.2389,-0.2388,-0.2343,-0.2342,-0.2341,-0.2345,0,0,-0.2337,-0.2336,0,0,0,0,0,0,0,0,-0.2288,-0.2293,-0.2344,-0.2346,-0.2348,-0.2386,-0.2344,-0.2372,-0.239,-0.237,-0.2389,-0.2388,-0.2351,-0.2349,-0.2357,-0.2343,-0.2341,-0.2337,-0.2336,-0.2336,-0.2335,0,0,0,0,0,0,0,-0.2286,-0.2291,-0.2354,-0.2345,-0.2348,-0.2356,-0.236,-0.235,-0.2359,-0.2372,-0.2373,-0.2385,-0.2351,-0.2358,-0.2355,-0.234,-0.2337,-0.2336,-0.2335,-0.2335,-0.2346,-0.2347,0,0,0,0,0,0,-0.2286,-0.2289,-0.2353,-0.2356,-0.232,-0.2358,-0.2363,-0.2372,-0.2361,-0.2361,-0.2386,-0.2385,-0.236,-0.2357,-0.2354,-0.2372,-0.2336,-0.2334,-0.2334,-0.2345,-0.2347,-0.2348,0,0,0,0,0,0,-0.2284,-0.2291,-0.235,-0.2327,-0.2335,-0.236,-0.237,-0.2373,-0.2378,-0.2373,-0.237,-0.2388,-0.236,-0.2355,-0.2353,-0.2369,-0.2334,-0.2333,-0.2344,-0.2346,-0.2347,-0.2399,0,0,0,0,0,0,-0.2281,-0.229,-0.2286,-0.2327,-0.2337,-0.2374,-0.2371,-0.2375,-0.2389,-0.2388,-0.2374,-0.2369,-0.2359,-0.2355,-0.2352,-0.2367,-0.2332,-0.2343,-0.2345,-0.2347,-0.2396,-0.2402,-0.2408,0,0,0,0,0,-0.2278,-0.2275,-0.2285,-0.2293,-0.2334,-0.2375,-0.238,-0.2393,-0.2389,-0.2394,-0.2391,-0.237,-0.2366,-0.2355,-0.2351,-0.2366,-0.2342,-0.2344,-0.2346,-0.2393,-0.2401,-0.2408,0,0,0,0,0,0,-0.2222,-0.2276,-0.2288,-0.2297,-0.2335,-0.2376,-0.2379,-0.2394,-0.2397,-0.239,-0.238,-0.2376,-0.2381,-0.2367,-0.2356,-0.2377,-0.2351,-0.2353,-0.2389,-0.2396,-0.2401,-0.2408,-0.2331,0,0,0,0,0,-0.2213,-0.2225,-0.2283,-0.2284,-0.2309,-0.2344,-0.2359,-0.2376,-0.2392,-0.2393,-0.2388,-0.2384,-0.239,-0.2387,-0.2383,-0.239,-0.2378,-0.2399,-0.2405,-0.241,-0.2414,-0.2417,-0.2424,-0.2356,-0.2356,-0.2356,0,0,-0.219,-0.2219,-0.2225,-0.2274,-0.2301,-0.2348,-0.235,-0.2377,-0.2408,-0.2386,-0.2404,-0.2398,-0.2396,-0.241,-0.2411,-0.2399,-0.2424,-0.2413,-0.2417,-0.2419,-0.2421,-0.2427,-0.2433,-0.2357,-0.2357,-0.2357,0,0,-0.2168,-0.2182,-0.2202,-0.2245,-0.2298,-0.233,-0.2342,-0.239,-0.2401,-0.2427,-0.2423,-0.2436,-0.2431,-0.2448,-0.2453,-0.2488,-0.2453,-0.2477,-0.2513,-0.2517,-0.2522,-0.2527,-0.252,-0.2524,-0.2483,-0.2483,-0.2483,0,-0.2146,-0.2175,-0.221,-0.2255,-0.229,-0.2328,-0.2371,-0.2399,-0.2435,-0.2447,-0.2435,-0.246,-0.2458,-0.2494,-0.2511,-0.2503,-0.2486,-0.2486,-0.2524,-0.2528,-0.2532,-0.2524,-0.2528,-0.2485,-0.2485,-0.2485,-0.2485,0,-0.2159,-0.2189,-0.2204,-0.2278,-0.2317,-0.2353,-0.2418,-0.2444,-0.2459,-0.2485,-0.251,-0.2518,-0.2532,-0.254,-0.2537,-0.2569,-0.2542,-0.2529,-0.2505,-0.2542,-0.2532,-0.2534,-0.2489,-0.2488,-0.2488,-0.2487,0,0,-0.2126,-0.2198,-0.221,-0.2239,-0.2334,-0.2363,-0.2427,-0.2488,-0.2517,-0.2544,-0.2573,-0.2605,-0.2598,-0.2605,-0.2604,-0.2617,-0.2639,-0.2584,-0.2583,-0.2575,-0.263,-0.2536,-0.2529,-0.262,-0.2621,-0.2622,-0.2612,0,-0.2137,-0.2181,-0.2239,-0.2299,-0.2335,-0.2407,-0.246,-0.2516,-0.2552,-0.2586,-0.2609,-0.2628,-0.2627,-0.2627,-0.2646,-0.2639,-0.2647,-0.2642,-0.2597,-0.2596,-0.2506,-0.253,-0.2413,-0.2387,-0.2614,-0.2614,-0.2615,0,-0.2163,-0.2182,-0.2219,-0.2298,-0.2325,-0.2368,-0.2449,-0.2506,-0.2578,-0.2603,-0.2639,-0.2649,-0.2689,-0.2668,-0.2688,-0.2677,-0.2658,-0.2651,-0.265,-0.2545,-0.2506,-0.2387,-0.2383,-0.2362,-0.2618,-0.2618,-0.2618,0,-0.2105,-0.2188,-0.2194,-0.2225,-0.2317,-0.2347,-0.2401,-0.2491,-0.2528,-0.2603,-0.2622,-0.2674,-0.2677,-0.2687,-0.2683,-0.2679,-0.2683,-0.2676,-0.2577,-0.257,-0.2453,-0.2434,-0.242,-0.2679,-0.2679,-0.2679,-0.2679,0,-0.2105,-0.2128,-0.2155,-0.2163,-0.2188,-0.2284,-0.2328,-0.2401,-0.2483,-0.2511,-0.2604,-0.2617,-0.2676,-0.2686,-0.2687,-0.2634,-0.2685,-0.2583,-0.2561,-0.2467,-0.245,-0.2411,-0.2431,-0.2679,-0.2679,-0.2679,-0.2679,0,-0.2067,-0.2083,-0.2092,-0.2139,-0.2155,-0.217,-0.2264,-0.2295,-0.2397,-0.2435,-0.2453,-0.256,-0.2572,-0.2619,-0.2631,-0.2612,-0.2538,-0.2558,-0.2438,-0.2401,-0.2271,-0.2298,-0.2249,-0.2182,-0.2447,-0.2445,-0.2443,0,-0.2061,-0.2042,-0.2035,-0.2018,-0.2037,-0.2073,-0.2097,-0.2219,-0.2255,-0.2379,-0.2377,-0.2431,-0.2442,-0.2453,-0.2435,-0.242,-0.2423,-0.2301,-0.2277,-0.2246,-0.2262,-0.2277,-0.2226,-0.2151,-0.2147,-0.2143,-0.2141,0,-0.2033,-0.1998,-0.1977,-0.192,-0.1915,-0.1935,-0.198,-0.1994,-0.2129,-0.2173,-0.2219,-0.2246,-0.2271,-0.222,-0.2218,-0.2191,-0.2226,-0.2225,-0.2229,-0.2056,-0.2036,-0.1965,-0.2183,-0.211,-0.2113,-0.2115,-0.2117,-0.2118,-0.1994,-0.1943,-0.1868,-0.1822,-0.1802,-0.178,-0.1758,-0.1826,-0.1856,-0.1914,-0.201,-0.2038,-0.2058,-0.2031,-0.2004,-0.1913,-0.1975,-0.1868,-0.1913,-0.194,-0.1842,-0.198,-0.1857,-0.1859,-0.186,-0.1861,-0.1862,0,-0.1942,-0.1859,-0.1788,-0.1697,-0.1623,-0.1658,-0.1661,-0.1631,-0.1617,-0.1721,-0.1757,-0.1808,-0.1758,-0.1787,-0.1727,-0.1653,-0.1621,-0.1618,-0.1632,-0.1601,-0.1744,-0.1695,-0.1485,-0.1485,-0.1485,-0.1485,-0.1485,-0.1485,-0.1897,-0.1791,-0.1724,-0.1543,-0.1473,-0.136,-0.1332,-0.1313,-0.1358,-0.1395,-0.1473,-0.1589,-0.1635,-0.1734,-0.1628,-0.1539,-0.1513,-0.1443,-0.1489,-0.1619,-0.1647,-0.1673,-0.1632,-0.1412,-0.1412,-0.1267,-0.1266,-0.1265]},{"header":{"parameterUnit":"m.s-1","parameterCategory":2,"la1":30.2991,"la2":30.254,"lo1":-89.0895,"lo2":-89.0444,"dx":0.0017,"dy":0.0017,"nx":28,"ny":28,"refTime":"2022-11-21T15:00:00:Z","depth":"0","parameterNumber":3,"parameterNumberName":"V-component_of_CURRENTS"},"data":[0,0,0,0,0,0,0,0,0,0,0,0,0,0,0,0,0,0,0,0,0,0,0,0,0,0,0,0,0,0,0,0,0,0,0,0,0,0,0,0,0,0,0,0,0,0,0,0,0,0,0,0,0,0,0,0,0,0,-0.0202,-0.0202,0,-0.0181,-0.0181,-0.018,-0.0163,-0.0163,-0.0163,-0.0163,-0.0108,-0.0107,-0.0105,0,0,0,0,0,0,0,0,0,0,0,0,0,-0.02,-0.02,-0.0202,-0.0202,-0.0202,-0.0181,-0.0181,-0.018,-0.0163,-0.0163,-0.0163,-0.0163,-0.0108,-0.0107,-0.0105,0,0,0,0,0,0,0,0,0,0,0,0,0,-0.0191,-0.0201,-0.0202,-0.0192,-0.0191,-0.0181,-0.0181,-0.018,-0.0163,-0.0163,-0.0163,-0.0163,-0.0109,-0.0107,-0.0105,-0.0094,0,0,-0.0098,-0.0097,0,0,0,0,0,0,0,0,-0.0192,-0.0191,-0.0193,-0.0192,-0.0191,-0.0176,-0.016,-0.015,-0.0163,-0.0172,-0.0163,-0.0163,-0.0128,-0.0125,-0.012,-0.0091,-0.0089,-0.0098,-0.0097,-0.0096,-0.0095,0,0,0,0,0,0,0,-0.0192,-0.0192,-0.0193,-0.0193,-0.0192,-0.0179,-0.0178,-0.0158,-0.0149,-0.0171,-0.017,-0.017,-0.0127,-0.0122,-0.0118,-0.0088,-0.0098,-0.0096,-0.0095,-0.0094,-0.0045,-0.0045,0,0,0,0,0,0,-0.0199,-0.0193,-0.0193,-0.0192,-0.0193,-0.0179,-0.0178,-0.018,-0.015,-0.0146,-0.017,-0.0169,-0.0125,-0.012,-0.0116,-0.0112,-0.0096,-0.0094,-0.0093,-0.0045,-0.0045,-0.0045,0,0,0,0,0,0,-0.0199,-0.02,-0.0194,-0.0193,-0.0191,-0.018,-0.0182,-0.0179,-0.0176,-0.015,-0.0145,-0.017,-0.0125,-0.0119,-0.0095,-0.0109,-0.0093,-0.0091,-0.0045,-0.0045,-0.0045,-0.0096,0,0,0,0,0,0,-0.0199,-0.02,-0.0201,-0.0193,-0.0192,-0.0196,-0.0182,-0.0179,-0.0177,-0.0175,-0.0148,-0.0143,-0.0124,-0.0099,-0.0093,-0.0106,-0.009,-0.0045,-0.0045,-0.0045,-0.0094,-0.0098,-0.0101,0,0,0,0,0,-0.0199,-0.0202,-0.0201,-0.0201,-0.0194,-0.0197,-0.0195,-0.0185,-0.0177,-0.018,-0.0154,-0.0144,-0.0095,-0.0097,-0.0091,-0.0103,-0.0045,-0.0045,-0.0045,-0.0093,-0.0097,-0.0101,0,0,0,0,0,0,-0.0198,-0.0201,-0.0199,-0.0201,-0.0204,-0.0195,-0.0195,-0.0188,-0.0171,-0.0165,-0.0139,-0.0132,-0.012,-0.0098,-0.0102,-0.0087,-0.007,-0.0069,-0.0109,-0.0112,-0.0115,-0.0129,-0.0088,0,0,0,0,0,-0.02,-0.0205,-0.0206,-0.0208,-0.0212,-0.0204,-0.0202,-0.0197,-0.0183,-0.0175,-0.0156,-0.0132,-0.0114,-0.0103,-0.0084,-0.0071,-0.0045,-0.0075,-0.0078,-0.0081,-0.0087,-0.006,-0.0061,-0.0044,-0.0044,-0.0044,0,0,-0.02,-0.0202,-0.0204,-0.0209,-0.0208,-0.0223,-0.0203,-0.0205,-0.021,-0.0171,-0.0167,-0.0143,-0.0113,-0.0102,-0.0095,-0.0086,-0.0069,-0.0081,-0.0084,-0.0088,-0.006,-0.0062,-0.0063,-0.0044,-0.0044,-0.0044,0,0,-0.0211,-0.0207,-0.0221,-0.0229,-0.0235,-0.0231,-0.0235,-0.023,-0.0222,-0.0212,-0.0187,-0.0168,-0.014,-0.0125,-0.0112,-0.0118,-0.0088,-0.0113,-0.0139,-0.0113,-0.0114,-0.0115,-0.0074,-0.0071,-0.0113,-0.0113,-0.0113,0,-0.0212,-0.0232,-0.0224,-0.0247,-0.0259,-0.0241,-0.0265,-0.0254,-0.0239,-0.0234,-0.0217,-0.0178,-0.0154,-0.0143,-0.0145,-0.0127,-0.01,-0.0131,-0.0118,-0.0119,-0.0119,-0.0076,-0.0072,-0.0115,-0.0115,-0.0115,-0.0115,0,-0.0243,-0.026,-0.027,-0.0295,-0.0305,-0.0319,-0.0315,-0.0313,-0.0297,-0.0283,-0.0265,-0.0224,-0.0204,-0.0193,-0.017,-0.0163,-0.0138,-0.0128,-0.0113,-0.0124,-0.0078,-0.0073,-0.0119,-0.0118,-0.0117,-0.0117,0,0,-0.0247,-0.0285,-0.029,-0.0316,-0.0333,-0.0346,-0.0357,-0.0362,-0.0368,-0.0336,-0.0336,-0.0299,-0.0271,-0.0254,-0.0222,-0.0196,-0.0168,-0.0165,-0.0163,-0.0132,-0.0096,-0.0028,-0.0015,-0.0157,-0.0156,-0.0156,-0.006,0,-0.0277,-0.0328,-0.0338,-0.0387,-0.0416,-0.0415,-0.0432,-0.0429,-0.041,-0.04,-0.0349,-0.0333,-0.0295,-0.0284,-0.0253,-0.019,-0.0158,-0.0194,-0.0084,-0.008,-0.0025,-0.0009,0.0013,0.0104,-0.0055,-0.0054,-0.0053,0,-0.0312,-0.0341,-0.0394,-0.0444,-0.0457,-0.048,-0.0506,-0.0515,-0.0492,-0.0476,-0.0444,-0.0402,-0.0355,-0.0322,-0.0221,-0.0244,-0.0179,-0.0125,-0.012,-0.0037,-0.0003,0.0089,0.012,0.025,-0.0045,-0.0046,-0.0046,0,-0.0328,-0.0385,-0.0428,-0.0446,-0.0493,-0.0516,-0.0534,-0.0536,-0.0543,-0.0517,-0.051,-0.0449,-0.0407,-0.0329,-0.0205,-0.0218,-0.0081,-0.0086,0.004,0.0046,0.0096,0.0106,0.0258,-0.0021,-0.0021,-0.0021,-0.0021,0,-0.0362,-0.0397,-0.044,-0.0465,-0.0521,-0.0541,-0.0583,-0.0592,-0.0592,-0.0601,-0.0544,-0.0522,-0.0407,-0.031,-0.0214,-0.0053,-0.0083,0.0043,0.0075,0.0082,0.0089,0.023,0.0281,-0.0018,-0.0018,-0.0019,-0.002,0,-0.0374,-0.0403,-0.0457,-0.051,-0.0532,-0.0567,-0.0622,-0.0647,-0.0641,-0.0648,-0.0641,-0.0562,-0.0435,-0.0299,-0.0149,-0.005,0.0174,0.0143,0.0157,0.019,0.0414,0.046,0.0649,0.0729,0.0284,0.0286,0.0288,0,-0.0382,-0.0411,-0.0482,-0.0521,-0.0547,-0.0601,-0.0644,-0.0669,-0.069,-0.0669,-0.0669,-0.0553,-0.0471,-0.0204,-0.0005,0.0193,0.0282,0.0336,0.031,0.0445,0.0519,0.0551,0.0605,0.036,0.0363,0.0365,0.0366,0,-0.0391,-0.0417,-0.0457,-0.0536,-0.0592,-0.0659,-0.0713,-0.0741,-0.0761,-0.076,-0.0722,-0.0654,-0.0386,-0.0136,0.015,0.0262,0.0444,0.0382,0.0511,0.0591,0.0645,0.073,0.0289,0.0383,0.0382,0.038,0.038,0.0379,-0.0383,-0.0418,-0.0474,-0.0546,-0.062,-0.0701,-0.0745,-0.0795,-0.083,-0.0833,-0.0754,-0.0644,-0.0246,0.0157,0.0315,0.065,0.0602,0.0719,0.0764,0.0785,0.0865,0.0478,0.0614,0.0614,0.0614,0.0613,0.0613,0,-0.0353,-0.0411,-0.0485,-0.0572,-0.0645,-0.069,-0.0779,-0.0816,-0.0854,-0.0839,-0.0789,-0.0415,-0.0017,0.0354,0.0845,0.1019,0.1043,0.1092,0.1128,0.1164,0.0814,0.0821,0.1022,0.1022,0.1021,0.1021,0.1021,0.1021,-0.0335,-0.0394,-0.0442,-0.0559,-0.0631,-0.0716,-0.0764,-0.0827,-0.0828,-0.076,-0.0609,-0.0476,0.0078,0.0905,0.1354,0.1378,0.1516,0.1495,0.1583,0.1323,0.129,0.1259,0.128,0.1573,0.1573,0.1908,0.1911,0.1914]}],[{"header":{"parameterUnit":"m.s-1","parameterCategory":2,"la1":30.2991,"la2":30.254,"lo1":-89.0895,"lo2":-89.0444,"dx":0.0017,"dy":0.0017,"nx":28,"ny":28,"refTime":"2022-11-21T15:00:00:Z","depth":"2","parameterNumber":2,"parameterNumberName":"U-component_of_CURRENTS"},"data":[0,0,0,0,0,0,0,0,0,0,0,0,0,0,0,0,0,0,0,0,0,0,0,0,0,0,0,0,0,0,0,0,0,0,0,0,0,0,0,0,0,0,0,0,0,0,0,0,0,0,0,0,0,0,0,0,0,0,-0.1907,-0.1908,0,-0.1931,-0.1932,-0.1932,-0.1906,-0.1905,-0.1904,-0.1903,-0.1889,-0.189,-0.189,0,0,0,0,0,0,0,0,0,0,0,0,0,-0.1881,-0.1881,-0.1907,-0.1908,-0.1908,-0.1931,-0.1932,-0.1932,-0.1906,-0.1905,-0.1904,-0.1903,-0.1889,-0.189,-0.189,0,0,0,0,0,0,0,0,0,0,0,0,0,-0.1896,-0.1881,-0.1907,-0.19,-0.1899,-0.1931,-0.1932,-0.1932,-0.1906,-0.1905,-0.1904,-0.1902,-0.1889,-0.189,-0.189,-0.1918,0,0,-0.1892,-0.1892,0,0,0,0,0,0,0,0,-0.1895,-0.1896,-0.19,-0.19,-0.19,-0.1916,-0.1917,-0.1926,-0.1906,-0.1901,-0.1903,-0.1902,-0.1897,-0.1897,-0.1902,-0.1918,-0.1917,-0.1892,-0.1892,-0.1893,-0.1893,0,0,0,0,0,0,0,-0.1894,-0.1895,-0.1915,-0.1901,-0.1901,-0.191,-0.191,-0.1919,-0.1903,-0.1902,-0.19,-0.1907,-0.1896,-0.1901,-0.1901,-0.1917,-0.1892,-0.1893,-0.1893,-0.1893,-0.1961,-0.1962,0,0,0,0,0,0,-0.1894,-0.1894,-0.1914,-0.1916,-0.1897,-0.1911,-0.1911,-0.191,-0.1904,-0.1903,-0.1908,-0.1905,-0.1901,-0.1901,-0.1901,-0.1935,-0.1893,-0.1893,-0.1894,-0.196,-0.1961,-0.1963,0,0,0,0,0,0,-0.1893,-0.1895,-0.1913,-0.1908,-0.1911,-0.1913,-0.1912,-0.1912,-0.1915,-0.191,-0.1907,-0.1912,-0.19,-0.19,-0.1919,-0.1933,-0.1893,-0.1894,-0.1958,-0.196,-0.1962,-0.2001,0,0,0,0,0,0,-0.1892,-0.1895,-0.1893,-0.1907,-0.1911,-0.192,-0.1914,-0.1913,-0.1922,-0.1919,-0.1913,-0.191,-0.1899,-0.1918,-0.1919,-0.1934,-0.1894,-0.1956,-0.1959,-0.1961,-0.1998,-0.2005,-0.201,0,0,0,0,0,-0.1891,-0.1888,-0.1892,-0.1895,-0.1908,-0.192,-0.1922,-0.1919,-0.1924,-0.1919,-0.1932,-0.191,-0.1936,-0.192,-0.1921,-0.1936,-0.1955,-0.1958,-0.1961,-0.1996,-0.2003,-0.201,0,0,0,0,0,0,-0.1869,-0.1886,-0.189,-0.189,-0.1901,-0.1916,-0.1915,-0.1926,-0.1935,-0.1935,-0.1932,-0.1931,-0.1949,-0.1946,-0.1929,-0.1965,-0.1941,-0.1945,-0.1967,-0.1974,-0.198,-0.1968,-0.1895,0,0,0,0,0,-0.1867,-0.187,-0.1888,-0.1887,-0.1894,-0.1911,-0.1917,-0.1921,-0.1934,-0.1936,-0.1942,-0.1953,-0.1966,-0.1972,-0.1976,-0.2003,-0.1993,-0.2014,-0.2019,-0.2024,-0.2018,-0.2028,-0.2034,-0.1974,-0.1974,-0.1974,0,0,-0.186,-0.1869,-0.1871,-0.1884,-0.1893,-0.1914,-0.191,-0.192,-0.1945,-0.1935,-0.1967,-0.197,-0.1978,-0.2001,-0.201,-0.1999,-0.2039,-0.2029,-0.2033,-0.2023,-0.2032,-0.2038,-0.2043,-0.1976,-0.1976,-0.1975,0,0,-0.1856,-0.1855,-0.1863,-0.1877,-0.1896,-0.191,-0.1917,-0.1941,-0.1952,-0.1989,-0.199,-0.2009,-0.2031,-0.2041,-0.205,-0.2097,-0.2067,-0.2095,-0.2119,-0.213,-0.2134,-0.2138,-0.2138,-0.2142,-0.2102,-0.2102,-0.2102,0,-0.185,-0.186,-0.1865,-0.1884,-0.1897,-0.1914,-0.1933,-0.1957,-0.1987,-0.2001,-0.1999,-0.2046,-0.2052,-0.2087,-0.2102,-0.2108,-0.2101,-0.2089,-0.2136,-0.2139,-0.2142,-0.2142,-0.2145,-0.2104,-0.2104,-0.2104,-0.2104,0,-0.1858,-0.1871,-0.1876,-0.1907,-0.1922,-0.1936,-0.1972,-0.1993,-0.2017,-0.204,-0.2074,-0.2093,-0.2115,-0.2127,-0.213,-0.216,-0.2143,-0.2137,-0.2112,-0.215,-0.2148,-0.2151,-0.2108,-0.2107,-0.2106,-0.2105,0,0,-0.184,-0.1875,-0.188,-0.1894,-0.1934,-0.1944,-0.1991,-0.2027,-0.2056,-0.2088,-0.2124,-0.2158,-0.216,-0.2171,-0.2178,-0.2192,-0.2218,-0.2174,-0.2173,-0.2165,-0.2229,-0.2156,-0.2152,-0.2214,-0.2214,-0.2215,-0.222,0,-0.1848,-0.1873,-0.1898,-0.1931,-0.1944,-0.1977,-0.2019,-0.2055,-0.2087,-0.2128,-0.2154,-0.2187,-0.2182,-0.2194,-0.221,-0.2216,-0.2225,-0.2216,-0.2201,-0.2201,-0.2123,-0.2153,-0.1983,-0.1968,-0.2223,-0.2223,-0.2223,0,-0.1853,-0.1866,-0.1891,-0.1934,-0.1945,-0.1972,-0.202,-0.2061,-0.2121,-0.2149,-0.2183,-0.2203,-0.2241,-0.2229,-0.2252,-0.2243,-0.2235,-0.2236,-0.2236,-0.2151,-0.2132,-0.1971,-0.1962,-0.2227,-0.2227,-0.2227,-0.2227,0,-0.1819,-0.1866,-0.1878,-0.1892,-0.1946,-0.1964,-0.1996,-0.2055,-0.2086,-0.2157,-0.2181,-0.2228,-0.225,-0.2259,-0.2262,-0.2258,-0.2273,-0.2272,-0.2197,-0.2192,-0.2035,-0.2014,-0.2276,-0.2276,-0.2276,-0.2276,-0.2276,0,-0.1812,-0.1827,-0.1859,-0.1863,-0.1884,-0.1935,-0.1967,-0.2014,-0.2078,-0.2105,-0.2179,-0.2202,-0.2254,-0.227,-0.227,-0.2237,-0.2281,-0.2197,-0.2188,-0.2045,-0.2026,-0.2239,-0.2235,-0.2277,-0.2277,-0.2277,-0.2277,0,-0.1778,-0.1802,-0.1812,-0.1851,-0.1864,-0.1874,-0.1931,-0.1952,-0.2031,-0.207,-0.2092,-0.2181,-0.2201,-0.2235,-0.2254,-0.2233,-0.2222,-0.2195,-0.2019,-0.1988,-0.2133,-0.2131,-0.2119,-0.2117,-0.2115,-0.2113,-0.2111,0,-0.1768,-0.1764,-0.1779,-0.177,-0.1784,-0.181,-0.1824,-0.191,-0.1933,-0.2039,-0.2047,-0.2103,-0.2114,-0.213,-0.2107,-0.2091,-0.2154,-0.1922,-0.1886,-0.2124,-0.2117,-0.2118,-0.2119,-0.17,-0.1696,-0.1692,-0.1689,0,-0.1737,-0.1733,-0.1726,-0.1694,-0.1695,-0.1707,-0.1736,-0.1749,-0.1846,-0.1886,-0.1931,-0.1954,-0.1984,-0.1902,-0.1892,-0.1857,-0.1917,-0.1841,-0.2134,-0.1766,-0.1729,-0.1723,-0.1737,-0.1654,-0.1658,-0.166,-0.1662,-0.1663,-0.1709,-0.1675,-0.1641,-0.1609,-0.16,-0.158,-0.1552,-0.1601,-0.1618,-0.1655,-0.1754,-0.1749,-0.1772,-0.1675,-0.1614,-0.1573,-0.1702,-0.1631,-0.1643,-0.1659,-0.1609,-0.157,-0.1456,-0.1458,-0.146,-0.1462,-0.1464,0,-0.1672,-0.1611,-0.156,-0.1498,-0.1436,-0.1471,-0.1468,-0.1429,-0.1405,-0.1477,-0.1502,-0.1391,-0.1349,-0.1384,-0.1272,-0.1261,-0.1248,-0.1205,-0.1187,-0.1221,-0.1252,-0.1182,-0.0915,-0.0913,-0.0912,-0.0911,0,0,-0.1653,-0.157,-0.1514,-0.1357,-0.13,-0.1198,-0.1171,-0.1141,-0.116,-0.1133,-0.1145,-0.1274,-0.1335,-0.1124,-0.1077,-0.0981,-0.1088,-0.0928,-0.1365,-0.1377,-0.1406,-0.1491,-0.142,0,0,0,0,0]},{"header":{"parameterUnit":"m.s-1","parameterCategory":2,"la1":30.2991,"la2":30.254,"lo1":-89.0895,"lo2":-89.0444,"dx":0.0017,"dy":0.0017,"nx":28,"ny":28,"refTime":"2022-11-21T15:00:00:Z","depth":"2","parameterNumber":3,"parameterNumberName":"V-component_of_CURRENTS"},"data":[0,0,0,0,0,0,0,0,0,0,0,0,0,0,0,0,0,0,0,0,0,0,0,0,0,0,0,0,0,0,0,0,0,0,0,0,0,0,0,0,0,0,0,0,0,0,0,0,0,0,0,0,0,0,0,0,0,0,0.009,0.0091,0,0.0137,0.0138,0.0138,0.0174,0.0174,0.0174,0.0175,0.0232,0.0233,0.0234,0,0,0,0,0,0,0,0,0,0,0,0,0,0.0051,0.0052,0.009,0.0091,0.0091,0.0137,0.0138,0.0138,0.0174,0.0174,0.0174,0.0175,0.0232,0.0233,0.0235,0,0,0,0,0,0,0,0,0,0,0,0,0,0.0081,0.0052,0.009,0.0114,0.0117,0.0137,0.0138,0.0139,0.0174,0.0174,0.0175,0.0175,0.0231,0.0233,0.0235,0.0238,0,0,0.0241,0.0241,0,0,0,0,0,0,0,0,0.0079,0.0082,0.011,0.0112,0.0115,0.015,0.0145,0.0172,0.0174,0.0153,0.0175,0.0175,0.0205,0.0209,0.0217,0.0241,0.0243,0.0241,0.0242,0.0243,0.0243,0,0,0,0,0,0,0,0.0077,0.008,0.0109,0.0111,0.0114,0.0129,0.0134,0.015,0.0176,0.0155,0.0157,0.0161,0.0206,0.0215,0.0219,0.0244,0.0241,0.0242,0.0244,0.0244,0.0278,0.0278,0,0,0,0,0,0,0.0068,0.0078,0.0108,0.0111,0.0097,0.0129,0.0134,0.0139,0.0176,0.0182,0.0161,0.0163,0.0212,0.0217,0.0221,0.0223,0.0243,0.0244,0.0246,0.0278,0.0278,0.0278,0,0,0,0,0,0,0.0067,0.007,0.0106,0.0095,0.0101,0.0129,0.0134,0.0139,0.0149,0.0181,0.0187,0.0164,0.0212,0.0218,0.0234,0.0225,0.0245,0.0247,0.0279,0.0278,0.0278,0.0229,0,0,0,0,0,0,0.0066,0.007,0.0068,0.0094,0.0101,0.0115,0.0134,0.014,0.015,0.0153,0.0186,0.0192,0.0213,0.0231,0.0236,0.0228,0.0249,0.0279,0.0279,0.0278,0.0231,0.0227,0.0224,0,0,0,0,0,0.0064,0.0061,0.0068,0.0071,0.0098,0.0115,0.012,0.0142,0.015,0.0152,0.0173,0.0191,0.0232,0.0232,0.0238,0.0231,0.0279,0.0279,0.0278,0.0233,0.0228,0.0224,0,0,0,0,0,0,0.0045,0.0065,0.0073,0.0076,0.0092,0.0121,0.0123,0.0137,0.0156,0.0157,0.0188,0.0195,0.0205,0.0225,0.0225,0.024,0.0258,0.0259,0.0222,0.0217,0.0214,0.0212,0.025,0,0,0,0,0,0.0038,0.0039,0.0063,0.0064,0.0069,0.0094,0.0103,0.0118,0.0138,0.0147,0.0167,0.0189,0.0207,0.0218,0.0237,0.0244,0.0271,0.0244,0.024,0.0237,0.0239,0.0271,0.0271,0.0276,0.0276,0.0276,0,0,0.0031,0.0041,0.0042,0.0059,0.0072,0.0074,0.01,0.011,0.0111,0.0149,0.0153,0.0177,0.0207,0.0216,0.0222,0.0231,0.0248,0.0236,0.0233,0.0238,0.0271,0.027,0.027,0.0276,0.0276,0.0276,0,0,0.0012,0.0024,0.0017,0.0025,0.004,0.0057,0.0057,0.0081,0.0092,0.0101,0.0127,0.0147,0.017,0.0193,0.0207,0.0196,0.0227,0.0198,0.0178,0.0209,0.0209,0.0209,0.0236,0.0239,0.0196,0.0196,0.0196,0,0.0002,-0.0005,0.0017,0.001,0.001,0.0045,0.0036,0.0052,0.0077,0.0084,0.0095,0.0137,0.0161,0.018,0.0176,0.0187,0.0209,0.019,0.0204,0.0205,0.0206,0.0234,0.0238,0.0194,0.0194,0.0194,0.0194,0,-0.0023,-0.0031,-0.0035,-0.0035,-0.0029,-0.0031,-0.0008,0.0001,0.0017,0.0037,0.0058,0.0095,0.012,0.013,0.015,0.0167,0.0181,0.0194,0.0213,0.0202,0.0232,0.0237,0.019,0.0191,0.0192,0.0192,0,0,-0.0034,-0.0052,-0.0053,-0.0068,-0.0055,-0.0054,-0.0051,-0.0036,-0.0036,-0.0003,0.0001,0.0043,0.0068,0.0086,0.0116,0.0147,0.0171,0.017,0.0172,0.0193,0.0236,0.0263,0.0271,0.0185,0.0186,0.0186,0.0252,0,-0.006,-0.0098,-0.0092,-0.012,-0.0135,-0.011,-0.0115,-0.0096,-0.0071,-0.0057,-0.0006,0.0009,0.0049,0.0057,0.0095,0.0152,0.0183,0.0152,0.0247,0.025,0.0273,0.0278,0.0249,0.0307,0.0257,0.0258,0.0258,0,-0.0083,-0.0107,-0.0149,-0.0174,-0.0178,-0.0188,-0.0186,-0.0183,-0.0146,-0.0129,-0.009,-0.005,0.0001,0.0031,0.0133,0.011,0.0168,0.0217,0.0221,0.0268,0.0286,0.0312,0.0319,0.0267,0.0267,0.0266,0.0265,0,-0.0108,-0.0143,-0.0183,-0.0191,-0.0211,-0.0224,-0.0229,-0.0206,-0.021,-0.0172,-0.0168,-0.0094,-0.0066,0.0022,0.013,0.0128,0.0244,0.0253,0.0334,0.0337,0.0344,0.0346,0.0323,0.0323,0.0323,0.0323,0.0323,0,-0.0134,-0.0161,-0.0203,-0.0225,-0.0269,-0.0267,-0.0297,-0.0285,-0.0275,-0.0282,-0.0211,-0.0195,-0.0067,0.0017,0.0116,0.0246,0.0235,0.0337,0.0359,0.0326,0.0325,0.0317,0.0315,0.0325,0.0325,0.0324,0.0324,0,-0.0144,-0.0174,-0.0222,-0.0267,-0.0284,-0.0314,-0.0352,-0.0368,-0.0352,-0.0358,-0.0351,-0.0268,-0.0157,-0.002,0.0128,0.0222,0.0345,0.0391,0.0345,0.036,0.0419,0.0414,0.0487,0.0488,0.0489,0.0491,0.0491,0,-0.0145,-0.0176,-0.0254,-0.0294,-0.0317,-0.0364,-0.0397,-0.0405,-0.0421,-0.0401,-0.0405,-0.0308,-0.0235,-0.0001,0.0184,0.0369,0.0374,0.0452,0.045,0.0424,0.0437,0.043,0.0424,0.0437,0.0437,0.0437,0.0438,0,-0.0141,-0.0179,-0.0225,-0.0315,-0.037,-0.0429,-0.0476,-0.0504,-0.0509,-0.0512,-0.0485,-0.0427,-0.0206,-0.0001,0.0248,0.0351,0.0423,0.0466,0.0454,0.0401,0.0383,0.0394,0.0388,0.0441,0.044,0.044,0.044,0.044,-0.0125,-0.0169,-0.0244,-0.0321,-0.0399,-0.0476,-0.0517,-0.0561,-0.0593,-0.0595,-0.0538,-0.0446,-0.0231,0.011,0.0299,0.0473,0.0467,0.0515,0.0511,0.0508,0.0491,0.0477,0.0549,0.055,0.055,0.055,0.055,0,-0.0075,-0.0154,-0.0242,-0.0345,-0.0425,-0.0469,-0.0552,-0.0583,-0.0621,-0.0614,-0.0576,-0.0373,-0.0136,0.0085,0.0368,0.0542,0.0522,0.0563,0.051,0.0506,0.0502,0.0484,0.0541,0.0541,0.0542,0.0542,0,0,-0.0054,-0.0123,-0.0188,-0.0323,-0.0408,-0.0497,-0.0542,-0.0598,-0.0603,-0.0614,-0.0558,-0.0437,-0.0153,0.005,0.027,0.0419,0.0414,0.0424,0.0412,0.032,0.0315,0.0455,0.0419,0,0,0,0,0]}],[{"header":{"parameterUnit":"m.s-1","parameterCategory":2,"la1":30.2991,"la2":30.254,"lo1":-89.0895,"lo2":-89.0444,"dx":0.0017,"dy":0.0017,"nx":28,"ny":28,"refTime":"2022-11-21T15:00:00:Z","depth":"4","parameterNumber":2,"parameterNumberName":"U-component_of_CURRENTS"},"data":[0,0,0,0,0,0,0,0,0,0,0,0,0,0,0,0,0,0,0,0,0,0,0,0,0,0,0,0,0,0,0,0,0,0,0,0,0,0,0,0,0,0,0,0,0,0,0,0,0,0,0,0,0,0,0,0,0,0,-0.1208,-0.1208,0,-0.1199,-0.1199,-0.1199,-0.1201,-0.1201,-0.1202,-0.1202,-0.1229,-0.1229,-0.123,0,0,0,0,0,0,0,0,0,0,0,0,0,-0.122,-0.122,-0.1208,-0.1208,-0.1208,-0.1199,-0.1199,-0.1199,-0.1201,-0.1201,-0.1202,-0.1202,-0.1229,-0.1229,-0.123,0,0,0,0,0,0,0,0,0,0,0,0,0,-0.1212,-0.122,-0.1208,-0.1209,-0.1209,-0.1199,-0.1199,-0.1199,-0.1201,-0.1201,-0.1202,-0.1202,-0.1228,-0.1229,-0.123,-0.1225,0,0,-0.1232,-0.1232,0,0,0,0,0,0,0,0,-0.1213,-0.1212,-0.1209,-0.1209,-0.1209,-0.1203,-0.1213,-0.121,-0.1201,-0.1203,-0.1202,-0.1202,-0.1224,-0.1225,-0.122,-0.1227,-0.1228,-0.1232,-0.1232,-0.1233,-0.1233,0,0,0,0,0,0,0,-0.1213,-0.1212,-0.1204,-0.1209,-0.1209,-0.1207,-0.1207,-0.1212,-0.1211,-0.1203,-0.1203,-0.1204,-0.1224,-0.1219,-0.1221,-0.1228,-0.1232,-0.1233,-0.1233,-0.1233,-0.1296,-0.1298,0,0,0,0,0,0,-0.1217,-0.1213,-0.1204,-0.1203,-0.1213,-0.1207,-0.1206,-0.1203,-0.121,-0.1211,-0.1203,-0.1204,-0.1218,-0.122,-0.1222,-0.1275,-0.1233,-0.1233,-0.1234,-0.1295,-0.1297,-0.1298,0,0,0,0,0,0,-0.1217,-0.1216,-0.1204,-0.1209,-0.1208,-0.1207,-0.1203,-0.1203,-0.1221,-0.121,-0.1212,-0.1224,-0.1218,-0.1221,-0.1245,-0.1274,-0.1234,-0.1234,-0.1294,-0.1296,-0.1297,-0.1343,0,0,0,0,0,0,-0.1217,-0.1216,-0.1228,-0.1209,-0.1207,-0.1212,-0.1203,-0.1203,-0.122,-0.1221,-0.1229,-0.123,-0.1219,-0.1244,-0.1246,-0.1274,-0.1235,-0.1292,-0.1294,-0.1297,-0.134,-0.1346,-0.1352,0,0,0,0,0,-0.1217,-0.1226,-0.1228,-0.1228,-0.122,-0.1212,-0.1212,-0.1211,-0.1221,-0.1229,-0.1238,-0.1231,-0.1261,-0.1246,-0.1247,-0.1276,-0.1291,-0.1294,-0.1297,-0.1337,-0.1345,-0.1352,0,0,0,0,0,0,-0.1236,-0.1226,-0.1229,-0.1235,-0.1232,-0.1214,-0.1225,-0.1227,-0.1239,-0.125,-0.1243,-0.1245,-0.1276,-0.1272,-0.1255,-0.1302,-0.1277,-0.128,-0.1307,-0.1315,-0.132,-0.1312,-0.1235,0,0,0,0,0,-0.1246,-0.1253,-0.1241,-0.125,-0.125,-0.1244,-0.1248,-0.1248,-0.125,-0.1257,-0.1263,-0.1275,-0.1285,-0.1297,-0.1302,-0.1328,-0.1322,-0.1349,-0.1355,-0.136,-0.1355,-0.1373,-0.138,-0.1307,-0.1307,-0.1307,0,0,-0.1256,-0.1253,-0.1259,-0.1256,-0.1254,-0.1256,-0.1248,-0.1259,-0.1272,-0.1259,-0.1291,-0.1295,-0.1296,-0.1322,-0.1337,-0.1325,-0.138,-0.1364,-0.1368,-0.136,-0.1377,-0.1384,-0.139,-0.1309,-0.1309,-0.1309,0,0,-0.1271,-0.1278,-0.1286,-0.1286,-0.129,-0.1284,-0.1294,-0.1292,-0.1307,-0.133,-0.1328,-0.1348,-0.1367,-0.1369,-0.1373,-0.1416,-0.1409,-0.143,-0.1455,-0.1474,-0.148,-0.1485,-0.1494,-0.1499,-0.1435,-0.1436,-0.1436,0,-0.1287,-0.1291,-0.1289,-0.1294,-0.1298,-0.13,-0.1308,-0.132,-0.1331,-0.1347,-0.135,-0.1384,-0.1385,-0.1412,-0.1425,-0.1429,-0.1437,-0.1427,-0.1481,-0.1486,-0.149,-0.1498,-0.1503,-0.1438,-0.1438,-0.1438,-0.1437,0,-0.1295,-0.131,-0.1315,-0.1321,-0.1327,-0.1336,-0.1343,-0.1366,-0.1387,-0.1396,-0.1436,-0.1438,-0.1455,-0.1468,-0.1458,-0.1496,-0.1492,-0.1484,-0.146,-0.15,-0.1506,-0.1511,-0.1442,-0.1441,-0.144,-0.1439,0,0,-0.1287,-0.1317,-0.1321,-0.1333,-0.1344,-0.1345,-0.1378,-0.1398,-0.1424,-0.1452,-0.1486,-0.1505,-0.1512,-0.1516,-0.1517,-0.1533,-0.1571,-0.1526,-0.1526,-0.153,-0.1614,-0.1517,-0.1512,-0.158,-0.1581,-0.1581,-0.1608,0,-0.1294,-0.132,-0.133,-0.1354,-0.1361,-0.1378,-0.1403,-0.1429,-0.1455,-0.1491,-0.1513,-0.1543,-0.1531,-0.1548,-0.1563,-0.1569,-0.1585,-0.1564,-0.1578,-0.1578,-0.1483,-0.1515,-0.1584,-0.1612,-0.1613,-0.1613,-0.1614,0,-0.1282,-0.1304,-0.1337,-0.1371,-0.1376,-0.1396,-0.1434,-0.1458,-0.1505,-0.1529,-0.1563,-0.158,-0.1613,-0.1597,-0.1627,-0.1619,-0.1619,-0.1619,-0.1621,-0.1512,-0.1489,-0.1562,-0.1622,-0.1621,-0.1621,-0.162,-0.162,0,-0.1258,-0.13,-0.1335,-0.1344,-0.1385,-0.1412,-0.1434,-0.1474,-0.1498,-0.1557,-0.1584,-0.1622,-0.1653,-0.1661,-0.1665,-0.1655,-0.1693,-0.1678,-0.1589,-0.1582,-0.1641,-0.1635,-0.1695,-0.1695,-0.1695,-0.1695,-0.1695,0,-0.1235,-0.1258,-0.1335,-0.1346,-0.1385,-0.1413,-0.1451,-0.1481,-0.1528,-0.1552,-0.1605,-0.1628,-0.1673,-0.1698,-0.1688,-0.1651,-0.1713,-0.159,-0.1582,-0.1661,-0.1658,-0.1645,-0.1639,-0.1696,-0.1696,-0.1696,-0.1696,0,-0.1184,-0.124,-0.1279,-0.135,-0.1373,-0.1398,-0.1451,-0.1468,-0.1528,-0.1563,-0.1586,-0.1652,-0.1675,-0.1704,-0.1723,-0.1671,-0.165,-0.1623,-0.1712,-0.1709,-0.152,-0.1517,-0.1516,-0.1512,-0.151,-0.1507,-0.1505,0,-0.1155,-0.1177,-0.1275,-0.1296,-0.133,-0.1376,-0.1394,-0.1457,-0.147,-0.1557,-0.1562,-0.1627,-0.1655,-0.1605,-0.1646,-0.1622,-0.1601,-0.1584,-0.1537,-0.151,-0.1502,-0.1503,-0.1502,-0.1501,-0.15,-0.15,-0.1499,0,-0.1087,-0.1145,-0.1183,-0.1237,-0.1274,-0.1303,-0.1339,-0.1341,-0.1407,-0.1493,-0.1491,-0.15,-0.1529,-0.1534,-0.1535,-0.1516,-0.1589,-0.1555,-0.156,-0.1515,-0.1492,-0.1487,-0.149,-0.1489,-0.1491,-0.1492,-0.1492,0,-0.1042,-0.1053,-0.1115,-0.1148,-0.1198,-0.1195,-0.1232,-0.1241,-0.1267,-0.1363,-0.1367,-0.1432,-0.1512,-0.148,-0.148,-0.1455,-0.1422,-0.1367,-0.1381,-0.1392,-0.1339,-0.1291,-0.1216,0,0,0,0,0,-0.0979,-0.0973,-0.1004,-0.1036,-0.1086,-0.1109,-0.117,-0.1209,-0.1292,-0.1252,-0.1298,-0.1313,-0.1312,-0.1356,-0.1302,-0.1422,-0.1428,-0.1353,-0.1373,-0.1437,-0.1448,-0.1395,0,0,0,0,0,0,-0.0933,-0.0957,-0.0967,-0.0932,-0.0932,-0.0963,-0.0999,-0.1061,-0.1044,-0.1142,-0.1148,-0.1232,-0.1252,-0.1319,-0.1274,-0.1286,-0.127,-0.1403,-0.14,-0.143,-0.144,-0.1449,-0.1399,0,0,0,0,0]},{"header":{"parameterUnit":"m.s-1","parameterCategory":2,"la1":30.2991,"la2":30.254,"lo1":-89.0895,"lo2":-89.0444,"dx":0.0017,"dy":0.0017,"nx":28,"ny":28,"refTime":"2022-11-21T15:00:00:Z","depth":"4","parameterNumber":3,"parameterNumberName":"V-component_of_CURRENTS"},"data":[0,0,0,0,0,0,0,0,0,0,0,0,0,0,0,0,0,0,0,0,0,0,0,0,0,0,0,0,0,0,0,0,0,0,0,0,0,0,0,0,0,0,0,0,0,0,0,0,0,0,0,0,0,0,0,0,0,0,0.0121,0.0121,0,0.0156,0.0156,0.0157,0.0185,0.0185,0.0186,0.0186,0.0245,0.0247,0.0248,0,0,0,0,0,0,0,0,0,0,0,0,0,0.0087,0.0087,0.0121,0.0121,0.0121,0.0156,0.0156,0.0157,0.0185,0.0185,0.0186,0.0186,0.0245,0.0246,0.0248,0,0,0,0,0,0,0,0,0,0,0,0,0,0.011,0.0087,0.012,0.014,0.0142,0.0156,0.0156,0.0157,0.0185,0.0185,0.0186,0.0186,0.0244,0.0246,0.0248,0.0252,0,0,0.0254,0.0255,0,0,0,0,0,0,0,0,0.0108,0.0111,0.0136,0.0138,0.0141,0.0167,0.0166,0.019,0.0185,0.0169,0.0186,0.0186,0.0221,0.0225,0.023,0.0255,0.0257,0.0254,0.0256,0.0256,0.0257,0,0,0,0,0,0,0,0.0107,0.011,0.0135,0.0137,0.0139,0.015,0.0153,0.0171,0.0192,0.017,0.0172,0.0176,0.0222,0.0228,0.0232,0.0258,0.0254,0.0256,0.0257,0.0258,0.0297,0.0296,0,0,0,0,0,0,0.0101,0.0108,0.0134,0.0136,0.0125,0.015,0.0154,0.0158,0.0192,0.0197,0.0176,0.0177,0.0225,0.0229,0.0234,0.0247,0.0256,0.0258,0.0259,0.0297,0.0297,0.0296,0,0,0,0,0,0,0.01,0.0103,0.0132,0.0123,0.0127,0.015,0.0154,0.0158,0.0168,0.0196,0.0202,0.0181,0.0225,0.0231,0.0251,0.025,0.0259,0.0261,0.0297,0.0297,0.0297,0.027,0,0,0,0,0,0,0.0099,0.0103,0.0102,0.0122,0.0127,0.014,0.0154,0.0159,0.0169,0.0172,0.0202,0.0208,0.0226,0.0248,0.0253,0.0253,0.0262,0.0297,0.0297,0.0297,0.0271,0.0269,0.0267,0,0,0,0,0,0.0098,0.0096,0.0102,0.0105,0.0127,0.014,0.0143,0.0161,0.0169,0.0172,0.0192,0.0207,0.0249,0.0249,0.0255,0.0256,0.0297,0.0297,0.0297,0.0272,0.0269,0.0267,0,0,0,0,0,0,0.0081,0.0099,0.0106,0.011,0.0123,0.0145,0.0147,0.016,0.0178,0.018,0.0207,0.0214,0.023,0.0246,0.0245,0.0265,0.0275,0.0276,0.0254,0.0252,0.025,0.024,0.0264,0,0,0,0,0,0.0077,0.0079,0.0099,0.01,0.0106,0.0126,0.0134,0.0146,0.0164,0.0172,0.0194,0.0215,0.0232,0.0244,0.0261,0.0274,0.0292,0.0277,0.0275,0.0273,0.0269,0.03,0.03,0.0295,0.0295,0.0295,0,0,0.007,0.008,0.0081,0.0096,0.0108,0.0111,0.0132,0.0141,0.0144,0.0176,0.0187,0.0208,0.0233,0.0246,0.0255,0.0261,0.0283,0.0273,0.0271,0.0268,0.0299,0.03,0.03,0.0295,0.0295,0.0295,0,0,0.0056,0.0067,0.0063,0.0072,0.0087,0.0099,0.0101,0.0123,0.0134,0.0146,0.0169,0.0192,0.0216,0.0237,0.0249,0.0246,0.027,0.0249,0.0234,0.0264,0.0265,0.0265,0.0285,0.0288,0.025,0.025,0.025,0,0.0048,0.0046,0.0064,0.0062,0.0065,0.0092,0.0088,0.0102,0.0127,0.0134,0.0145,0.0187,0.0211,0.0232,0.023,0.0243,0.0258,0.0242,0.0261,0.0263,0.0264,0.0284,0.0287,0.0249,0.0249,0.0249,0.0249,0,0.003,0.0028,0.0027,0.0032,0.0038,0.0039,0.0059,0.0069,0.0085,0.0101,0.0125,0.0162,0.0187,0.0199,0.0213,0.0233,0.024,0.0254,0.0267,0.0263,0.0284,0.0288,0.0247,0.0247,0.0248,0.0248,0,0,0.0021,0.0014,0.0014,0.0006,0.0021,0.0022,0.0028,0.0042,0.0044,0.0077,0.0084,0.0124,0.0148,0.0164,0.0192,0.022,0.0244,0.0236,0.0238,0.0254,0.0301,0.0282,0.0284,0.0262,0.0262,0.0263,0.031,0,0.0004,-0.002,-0.0012,-0.0029,-0.0037,-0.0015,-0.0015,0.0,0.0021,0.0035,0.0082,0.01,0.0133,0.0145,0.018,0.0226,0.0254,0.0229,0.0304,0.0305,0.0288,0.0288,0.0265,0.0313,0.0314,0.0315,0.0316,0,-0.0009,-0.0026,-0.0054,-0.0067,-0.0068,-0.0075,-0.007,-0.0065,-0.0034,-0.0018,0.0018,0.0053,0.0099,0.0126,0.0212,0.0193,0.024,0.0281,0.0284,0.0277,0.0294,0.032,0.0323,0.0323,0.0322,0.0322,0.0321,0,-0.003,-0.005,-0.0079,-0.0083,-0.0093,-0.0102,-0.0105,-0.0085,-0.0087,-0.0052,-0.0049,0.0019,0.0043,0.0121,0.0203,0.0207,0.0294,0.0313,0.0343,0.0342,0.0357,0.0356,0.0371,0.0371,0.0371,0.0371,0.0371,0,-0.0046,-0.0063,-0.0097,-0.0113,-0.0145,-0.0138,-0.0162,-0.0148,-0.0138,-0.0146,-0.0082,-0.0071,0.0041,0.0105,0.0189,0.0273,0.0287,0.0337,0.0353,0.0344,0.0341,0.036,0.0358,0.0373,0.0372,0.0372,0.0372,0,-0.005,-0.0074,-0.0109,-0.0144,-0.0158,-0.018,-0.021,-0.0224,-0.0208,-0.0216,-0.0209,-0.0141,-0.0057,0.0054,0.0177,0.0241,0.0334,0.0361,0.0333,0.0347,0.0367,0.0363,0.04,0.0399,0.0399,0.0399,0.0399,0,-0.005,-0.0072,-0.0136,-0.017,-0.0189,-0.0227,-0.0254,-0.0257,-0.0271,-0.0259,-0.0264,-0.0197,-0.0138,0.0018,0.0142,0.0301,0.0324,0.037,0.0379,0.0357,0.037,0.0367,0.0363,0.0398,0.0398,0.0398,0.0398,0,-0.004,-0.0071,-0.0106,-0.0186,-0.0234,-0.0283,-0.0322,-0.0344,-0.0346,-0.034,-0.0314,-0.0231,-0.0142,-0.0001,0.0118,0.0235,0.0342,0.0368,0.0369,0.0379,0.0356,0.0368,0.0365,0.0397,0.0398,0.0398,0.0398,0,-0.0028,-0.0055,-0.0117,-0.0183,-0.0256,-0.0318,-0.0344,-0.0368,-0.0382,-0.037,-0.0364,-0.026,-0.0198,-0.0036,0.0077,0.0187,0.0219,0.0258,0.0266,0.0269,0.0219,0.0171,0.0166,0,0,0,0,0,-0.0003,-0.0036,-0.0106,-0.0191,-0.0274,-0.0311,-0.0374,-0.0394,-0.0411,-0.0403,-0.0384,-0.03,-0.0143,-0.0068,0.0037,0.0085,0.0246,0.0212,0.0297,0.0393,0.0394,0.0357,0,0,0,0,0,0,-0.0,-0.0039,-0.009,-0.0186,-0.0245,-0.0327,-0.037,-0.0388,-0.0382,-0.0384,-0.03,-0.0267,-0.0108,-0.0195,0.0045,0.0078,0.0145,0.0287,0.0289,0.0392,0.0393,0.0394,0.0357,0,0,0,0,0]}]]